Location: Lawrence
(38.9720°N, 95.2350°W)
Time: 05:19:50
(UTC-05:00)

Amateur Radio Satellites - All Passes

Search period start: 24 October 2014 04:49
Search period end: 25 October 2014 04:49
Location: Lawrence, 38.9720°N, 95.2350°W

Satellite Date Start Highest point End Downlink Frequencies (MHz)
Time Altitude Azimuth
Sapphire 24 Oct 04:53:40 04:59:04 84° 298° (WNW) 05:04:31 437.095 MHz 1200 baud AX-25 AFSK
AO-Echo 24 Oct 04:56:28 04:59:40 16° 297° (WNW) 05:02:51 ?
Uosat F 24 Oct 05:01:00 05:05:08 25° 95° (E) 05:09:15 435.120 FM
JAS-2 24 Oct 05:09:46 05:13:17 13° 86° (E) 05:16:47 435.800 - 435.900 CW/SSB, 435.910 FM
Uribyol 2 24 Oct 05:12:40 05:15:22 14° 299° (WNW) 05:18:03 436.500 FM
PCSat 24 Oct 05:16:34 05:21:48 50° 303° (WNW) 05:27:05 145.825 MHz
ITAMSAT 1 24 Oct 05:18:39 05:21:08 14° 299° (WNW) 05:23:38 435.822 SSB
AO-7 24 Oct 05:20:16 05:28:22 53° 102° (ESE) 05:36:27 29.400 - 29.500 MHz
Gurwin Techsat 1B 24 Oct 05:32:32 05:36:10 19° 296° (WNW) 05:39:47 435.225 FM
OPAL 24 Oct 05:42:58 05:48:08 86° 254° (WSW) 05:53:16 ?
TMSAT-1 24 Oct 05:44:15 05:47:59 20° 296° (WNW) 05:51:42 436.925 FM
STRAND 1 24 Oct 05:51:18 05:52:54 11° 60° (ENE) 05:54:31 ?
RS-15 24 Oct 06:13:04 06:22:38 31° 37° (NE) 06:32:27 29.354 - 29.394 USB, Beacon 29.352 USB
Uosat F 24 Oct 06:39:23 06:43:57 35° 291° (WNW) 06:48:30 435.120 FM
Sapphire 24 Oct 06:40:32 06:43:20 14° 317° (NW) 06:46:08 437.095 MHz 1200 baud AX-25 AFSK
Hamsat 24 Oct 06:45:10 06:49:07 40° 98° (E) 06:53:05 145.90 MHz
JAS-2 24 Oct 06:51:28 06:59:17 77° 103° (ESE) 07:07:05 435.800 - 435.900 CW/SSB, 435.910 FM
AO-7 24 Oct 07:13:34 07:20:48 35° 300° (WNW) 07:28:02 29.400 - 29.500 MHz
STRAND 1 24 Oct 07:26:11 07:31:19 87° 257° (WSW) 07:36:30 ?
Saudisat 1A 24 Oct 07:37:57 07:41:41 28° 113° (ESE) 07:45:26 436.775 MHz
Hamsat 24 Oct 08:22:08 08:24:44 16° 293° (WNW) 08:27:21 145.90 MHz
RS-15 24 Oct 08:25:12 08:36:26 86° 241° (WSW) 08:48:11 29.354 - 29.394 USB, Beacon 29.352 USB
SO-67 24 Oct 08:30:30 08:33:58 85° 282° (WNW) 08:37:24 435.3500 MHz FM
JAS-2 24 Oct 08:37:44 08:43:30 24° 299° (WNW) 08:49:20 435.800 - 435.900 CW/SSB, 435.910 FM
PANSAT 24 Oct 08:48:04 08:50:10 14° 170° (S) 08:52:16 not established
HO-68 24 Oct 08:50:25 08:53:52 14° 89° (E) 08:57:18 435.675 MHz FM
Saudisat 1A 24 Oct 09:17:18 09:21:10 29° 310° (NW) 09:25:03 436.775 MHz
UKube-1 24 Oct 09:53:27 09:55:08 12° 91° (E) 09:56:49 145.840 MHz, 145.915 MHz
MaSat-1 24 Oct 10:15:12 10:17:47 75° 246° (WSW) 10:20:10 437.345 MHz
PANSAT 24 Oct 10:27:10 10:29:39 17° 183° (S) 10:32:09 not established
FUNcube-1 24 Oct 10:31:52 10:33:27 12° 91° (E) 10:35:01 145.950 - 145.970 MHz USB
Oscar 11 24 Oct 10:33:39 10:37:33 33° 97° (E) 10:41:25 145.825 FM, Beacon 2401.500 USB
HO-68 24 Oct 10:35:12 10:42:26 88° 106° (ESE) 10:49:38 435.675 MHz FM
RS-15 24 Oct 10:39:59 10:47:13 20° 260° (W) 10:54:40 29.354 - 29.394 USB, Beacon 29.352 USB
ZACube-1 24 Oct 11:21:07 11:25:14 46° 99° (E) 11:29:14 437.345 MHz
UKube-1 24 Oct 11:27:22 11:31:39 56° 287° (WNW) 11:35:54 145.840 MHz, 145.915 MHz
KITSAT 1 24 Oct 11:39:37 11:45:54 26° 104° (ESE) 11:52:10 435.175 FM
Sapphire 24 Oct 12:02:36 12:03:42 11° 39° (NE) 12:04:48 437.095 MHz 1200 baud AX-25 AFSK
FUNcube-1 24 Oct 12:06:01 12:10:10 51° 286° (WNW) 12:14:12 145.950 - 145.970 MHz USB
PANSAT 24 Oct 12:08:27 12:09:06 10° 196° (SSW) 12:09:45 not established
ISS 24 Oct 12:09:56 12:11:09 12° 128° (SE) 12:12:23 145.800 FM
Oscar 11 24 Oct 12:10:20 12:13:30 20° 293° (WNW) 12:16:40 145.825 FM, Beacon 2401.500 USB
Oscar 10/S400 24 Oct 12:19:28 12:39:12 26° 152° (SSE) 12:53:59 145.825 - 145.975 CW/USB, Beacon 145.810 USB
PCSat 24 Oct 12:23:29 12:26:51 16° 45° (NE) 12:30:11 145.825 MHz
HO-68 24 Oct 12:24:42 12:29:12 18° 304° (NW) 12:33:42 435.675 MHz FM
Oscar 16 24 Oct 12:52:08 12:55:31 18° 64° (ENE) 12:58:55 437.025 USB, Beacon 2401.1428
ZACube-1 24 Oct 12:58:55 13:01:12 14° 295° (WNW) 13:03:28 437.345 MHz
SO-50 24 Oct 13:06:06 13:10:12 37° 115° (ESE) 13:14:27 436.795 FM
JAS-1B 24 Oct 13:12:30 13:17:12 25° 65° (ENE) 13:21:43 435.800 - 435.900 CW/SSB
Uribyol 2 24 Oct 13:12:36 13:14:27 12° 60° (ENE) 13:16:18 436.500 FM
ITAMSAT 1 24 Oct 13:18:09 13:20:19 13° 60° (ENE) 13:22:30 435.822 SSB
KITSAT 1 24 Oct 13:32:35 13:40:36 67° 302° (WNW) 13:48:40 435.175 FM
Sapphire 24 Oct 13:42:54 13:48:17 60° 59° (ENE) 13:53:38 437.095 MHz 1200 baud AX-25 AFSK
Oscar 19 24 Oct 13:43:43 13:48:42 53° 72° (ENE) 13:53:42 437.125 CW, 437.150 USB
ISS 24 Oct 13:44:07 13:47:25 69° 323° (NW) 13:50:45 145.800 FM
AO-27 24 Oct 14:00:47 14:05:22 32° 68° (ENE) 14:09:58 436.795 MHz FM
PCSat 24 Oct 14:05:29 14:10:56 82° 244° (WSW) 14:16:20 145.825 MHz
AO-Echo 24 Oct 14:27:57 14:32:46 72° 75° (ENE) 14:37:48 ?
Oscar 16 24 Oct 14:29:22 14:34:25 55° 260° (W) 14:39:29 437.025 USB, Beacon 2401.1428
AO-7 24 Oct 14:30:58 14:34:39 14° 48° (NE) 14:38:21 29.400 - 29.500 MHz
UOSAT-12 24 Oct 14:32:34 14:36:24 26° 112° (ESE) 14:40:18 437.025 FM, 437.400 FM
SO-50 24 Oct 14:47:08 14:50:51 25° 313° (NW) 14:54:40 436.795 FM
Uribyol 2 24 Oct 14:47:55 14:53:09 87° 256° (WSW) 14:58:25 436.500 FM
ITAMSAT 1 24 Oct 14:53:52 14:59:05 82° 257° (WSW) 15:04:20 435.822 SSB
JAS-1B 24 Oct 15:02:03 15:07:43 40° 261° (W) 15:13:03 435.800 - 435.900 CW/SSB
Gurwin Techsat 1B 24 Oct 15:11:18 15:16:35 76° 75° (ENE) 15:21:54 435.225 FM
ISS 24 Oct 15:22:36 15:24:37 15° 341° (NNW) 15:26:38 145.800 FM
TMSAT-1 24 Oct 15:22:48 15:28:04 72° 74° (ENE) 15:33:22 436.925 FM
Oscar 19 24 Oct 15:25:02 15:28:20 17° 268° (W) 15:31:39 437.125 CW, 437.150 USB
Sapphire 24 Oct 15:27:41 15:31:10 17° 255° (WSW) 15:34:38 437.095 MHz 1200 baud AX-25 AFSK
KITSAT 1 24 Oct 15:32:25 15:37:40 18° 326° (NW) 15:42:55 435.175 FM
AO-27 24 Oct 15:40:20 15:44:50 29° 264° (W) 15:49:22 436.795 MHz FM
Saudisat 1A 24 Oct 16:05:43 16:08:54 19° 46° (NE) 16:12:04 436.775 MHz
AO-Echo 24 Oct 16:10:33 16:12:06 11° 271° (W) 16:13:40 ?
UOSAT-12 24 Oct 16:12:09 16:16:23 35° 309° (NW) 16:20:43 437.025 FM, 437.400 FM
Uosat F 24 Oct 16:13:06 16:17:28 31° 68° (ENE) 16:21:53 435.120 FM
AO-7 24 Oct 16:17:43 16:25:50 64° 68° (ENE) 16:33:59 29.400 - 29.500 MHz
Gurwin Techsat 1B 24 Oct 16:55:04 16:57:05 12° 270° (W) 16:59:07 435.225 FM
JAS-2 24 Oct 17:03:28 17:08:25 28° 63° (ENE) 17:13:52 435.800 - 435.900 CW/SSB, 435.910 FM
TMSAT-1 24 Oct 17:06:08 17:08:29 13° 270° (W) 17:10:51 436.925 FM
Hamsat 24 Oct 17:37:41 17:41:07 25° 70° (ENE) 17:44:34 145.90 MHz
Saudisat 1A 24 Oct 17:44:27 17:48:44 50° 243° (WSW) 17:52:59 436.775 MHz
Uosat F 24 Oct 17:51:55 17:56:12 28° 264° (W) 18:00:32 435.120 FM
OPAL 24 Oct 17:54:45 17:58:53 26° 98° (E) 18:02:58 ?
AO-7 24 Oct 18:12:28 18:19:05 26° 265° (W) 18:25:46 29.400 - 29.500 MHz
ISS 24 Oct 18:37:54 18:40:16 18° 22° (NNE) 18:42:38 145.800 FM
JAS-2 24 Oct 18:47:33 18:53:06 46° 263° (W) 18:59:25 435.800 - 435.900 CW/SSB, 435.910 FM
SO-67 24 Oct 19:02:18 19:05:06 24° 71° (ENE) 19:07:54 435.3500 MHz FM
Hamsat 24 Oct 19:13:31 19:16:59 25° 265° (W) 19:20:27 145.90 MHz
HO-68 24 Oct 19:21:32 19:22:47 11° 50° (NE) 19:24:03 435.675 MHz FM
KITSAT 1 24 Oct 19:33:18 19:37:23 14° 28° (NNE) 19:41:27 435.175 FM
OPAL 24 Oct 19:33:20 19:37:46 33° 293° (WNW) 19:42:09 ?
STRAND 1 24 Oct 19:38:21 19:43:03 35° 97° (E) 19:47:43 ?
AO-40 24 Oct 20:07:06 22:49:52 37° 199° (SSW) 03:59:11 Beacon 2401.320
ISS 24 Oct 20:13:58 20:17:19 81° 218° (SW) 20:20:39 145.800 FM
SO-67 24 Oct 20:35:48 20:38:03 16° 266° (W) 20:40:19 435.3500 MHz FM
RS-15 24 Oct 20:42:40 20:47:14 14° 97° (E) 20:51:47 29.354 - 29.394 USB, Beacon 29.352 USB
HO-68 24 Oct 21:02:01 21:09:00 59° 69° (ENE) 21:16:01 435.675 MHz FM
STRAND 1 24 Oct 21:17:48 21:22:04 27° 293° (WNW) 21:26:20 ?
KITSAT 1 24 Oct 21:27:11 21:35:00 50° 53° (NE) 21:42:46 435.175 FM
Oscar 11 24 Oct 21:27:56 21:31:21 23° 68° (ENE) 21:34:46 145.825 FM, Beacon 2401.500 USB
FUNcube-1 24 Oct 21:28:26 21:29:14 10° 62° (ENE) 21:30:02 145.950 - 145.970 MHz USB
SO-50 24 Oct 21:38:36 21:42:48 29° 49° (NE) 21:47:01 436.795 FM
ZACube-1 24 Oct 22:16:08 22:20:17 34° 71° (ENE) 22:24:23 437.345 MHz
UKube-1 24 Oct 22:21:15 22:25:35 76° 257° (WSW) 22:29:58 145.840 MHz, 145.915 MHz
RS-15 24 Oct 22:46:33 22:57:30 72° 116° (ESE) 23:08:20 29.354 - 29.394 USB, Beacon 29.352 USB
HO-68 24 Oct 22:51:24 22:57:03 25° 266° (W) 23:02:45 435.675 MHz FM
FUNcube-1 24 Oct 23:00:22 23:04:58 79° 258° (WSW) 23:09:31 145.950 - 145.970 MHz USB
UOSAT-12 24 Oct 23:03:10 23:06:38 20° 45° (NE) 23:10:04 437.025 FM, 437.400 FM
Oscar 11 24 Oct 23:03:38 23:07:23 29° 264° (W) 23:11:09 145.825 FM, Beacon 2401.500 USB
SO-50 24 Oct 23:18:58 23:23:24 36° 246° (WSW) 23:27:51 436.795 FM
KITSAT 1 24 Oct 23:22:58 23:30:08 37° 252° (WSW) 23:37:17 435.175 FM
MaSat-1 24 Oct 23:50:08 23:54:01 37° 110° (ESE) 23:57:35 437.345 MHz
ZACube-1 24 Oct 23:53:12 23:56:42 21° 266° (W) 00:00:12 437.345 MHz
UOSAT-12 25 Oct 00:42:31 00:47:07 54° 243° (WSW) 00:51:36 437.025 FM, 437.400 FM
RS-15 25 Oct 01:01:00 01:10:45 36° 320° (NW) 01:20:35 29.354 - 29.394 USB, Beacon 29.352 USB
MaSat-1 25 Oct 01:26:56 01:29:42 18° 303° (WNW) 01:32:18 437.345 MHz
Oscar 19 25 Oct 01:57:23 02:01:08 20° 94° (E) 02:04:52 437.125 CW, 437.150 USB
AO-27 25 Oct 02:16:57 02:18:55 12° 90° (E) 02:20:54 436.795 MHz FM
AO-Echo 25 Oct 02:36:42 02:41:12 27° 95° (E) 02:45:39 ?
Oscar 16 25 Oct 02:42:11 02:47:15 58° 101° (E) 02:52:16 437.025 USB, Beacon 2401.1428
JAS-1B 25 Oct 02:44:31 02:51:11 55° 102° (ESE) 02:59:08 435.800 - 435.900 CW/SSB
Uribyol 2 25 Oct 03:02:14 03:07:03 37° 98° (E) 03:11:49 436.500 FM
PCSat 25 Oct 03:05:28 03:08:24 15° 104° (ESE) 03:11:21 145.825 MHz
ITAMSAT 1 25 Oct 03:08:15 03:13:09 39° 98° (E) 03:18:00 435.822 SSB
RS-15 25 Oct 03:21:18 03:27:51 17° 354° (N) 03:34:29 29.354 - 29.394 USB, Beacon 29.352 USB
Gurwin Techsat 1B 25 Oct 03:29:07 03:33:54 33° 97° (E) 03:38:39 435.225 FM
Oscar 19 25 Oct 03:35:49 03:40:39 44° 289° (WNW) 03:45:28 437.125 CW, 437.150 USB
TMSAT-1 25 Oct 03:40:18 03:45:00 31° 96° (E) 03:49:39 436.925 FM
AO-27 25 Oct 03:53:43 03:58:57 75° 286° (WNW) 04:04:09 436.795 MHz FM
AO-Echo 25 Oct 04:15:08 04:19:57 36° 291° (WNW) 04:24:46 ?
AO-7 25 Oct 04:21:54 04:27:54 21° 93° (E) 04:33:52 29.400 - 29.500 MHz
Oscar 16 25 Oct 04:22:55 04:26:06 17° 297° (WNW) 04:29:17 437.025 USB, Beacon 2401.1428
Sapphire 25 Oct 04:23:16 04:28:37 72° 115° (ESE) 04:34:02 437.095 MHz 1200 baud AX-25 AFSK
JAS-1B 25 Oct 04:36:04 04:41:33 28° 294° (WNW) 04:47:48 435.800 - 435.900 CW/SSB
